Weather History for Columbia, MO

Change the Weather History Date:

Monday, March 19, 2012

  Actual Average Record
Temperature  
Mean Temperature 70 °F 46 °F  
Max Temperature 81 °F 57 °F 81 °F (2012)
Min Temperature 58 °F 35 °F 2 °F (1923)
Degree Days  
Heating Degree Days 0 19  
Month to date heating degree days 185 429  
Since 1 July heating degree days 3528 4375  
Cooling Degree Days 5 0  
Month to date cooling degree days 27 0  
Year to date cooling degree days 27 0  
Growing Degree Days 20 (Base 50)    
Moisture  
Dew Point 59 °F    
Average Humidity 65    
Maximum Humidity 84    
Minimum Humidity 46    
Precipitation  
Precipitation T in 0.10 in 2.08 in (1927)
Month to date precipitation 1.67 1.67  
Year to date precipitation 5.18 5.84  
Snow  
Snow 0.00 in 0.10 in 6.20 in (1906)
Month to date snowfall T 1.4  
Since 1 July snowfall 6.6 17.5  
Snow Depth 0.00 in    
Sea Level Pressure  
Sea Level Pressure 29.82 in    
Wind  
Wind Speed 15 mph (SSE)    
Max Wind Speed 35 mph    
Max Gust Speed 46 mph    
Visibility 10 miles    
Events Rain    
T = Trace of Precipitation, MM = Missing Value Source: NWS Daily Summary

Daily Weather History Graph

Daily Weather History Graph

Search for Another Location

Airport:

Trip Planner

Search our weather history database for the weather conditions in past years. The results will help you decide how hot, cold, wet, or windy it might be!

Date:

Astronomy

Mar. 19, 2012 Rise Set
Actual Time 7:13 AM CDT 7:20 PM CDT
Civil Twilight 6:46 AM CDT 7:46 PM CDT
Nautical Twilight 6:15 AM CDT 8:18 PM CDT
Astronomical Twilight 5:44 AM CDT 8:49 PM CDT
Moon 5:23 AM CDT (3/19) 4:50 PM CDT (3/19)
Length of Visible Light 13h 00m
Length of Day
12h 07m
Waning Crescent, 8% of the Moon is Illuminated
Mar 19
Waning Crescent
Mar 22
New
Mar 30
First Quarter
Apr 6
Full
Apr 13
Last Quarter

Hourly Weather History & Observations

Time (CDT) Temp. Dew Point Humidity Pressure Visibility Wind Dir Wind Speed Gust Speed Precip Events Conditions
12:54 AM 70.0 °F 60.1 °F 71% 29.88 in 10.0 mi SSE 16.1 mph - 0.00 in   Partly Cloudy
1:54 AM 70.0 °F 60.1 °F 71% 29.88 in 10.0 mi SSE 12.7 mph - N/A   Partly Cloudy
2:54 AM 70.0 °F 61.0 °F 73% 29.87 in 10.0 mi SSE 16.1 mph - N/A   Clear
3:54 AM 69.1 °F 61.0 °F 75% 29.87 in 10.0 mi South 11.5 mph - 0.00 in Rain Light Rain
4:54 AM 69.8 °F 60.8 °F 73% 29.88 in 10.0 mi SSE 10.4 mph - N/A   Mostly Cloudy
5:54 AM 68.0 °F 61.0 °F 78% 29.87 in 10.0 mi SSE 9.2 mph - N/A   Partly Cloudy
6:54 AM 66.2 °F 60.8 °F 83% 29.90 in 10.0 mi SSE 9.2 mph - N/A   Partly Cloudy
7:54 AM 66.9 °F 61.0 °F 81% 29.90 in 10.0 mi SSE 10.4 mph - N/A   Partly Cloudy
8:54 AM 69.1 °F 61.0 °F 75% 29.90 in 10.0 mi SSE 12.7 mph 20.7 mph N/A   Clear
9:54 AM 73.0 °F 61.0 °F 66% 29.88 in 10.0 mi SSE 18.4 mph 25.3 mph N/A   Scattered Clouds
10:54 AM 75.9 °F 61.0 °F 60% 29.88 in 10.0 mi South 16.1 mph 24.2 mph N/A   Partly Cloudy
11:54 AM 75.0 °F 60.1 °F 60% 29.83 in 10.0 mi SSE 19.6 mph 24.2 mph N/A   Partly Cloudy
12:54 PM 78.1 °F 61.0 °F 56% 29.82 in 10.0 mi South 23.0 mph 27.6 mph N/A   Partly Cloudy
1:54 PM 79.0 °F 60.1 °F 52% 29.78 in 10.0 mi SSE 18.4 mph 27.6 mph N/A   Mostly Cloudy
2:54 PM 79.0 °F 57.9 °F 48% 29.75 in 10.0 mi South 25.3 mph 31.1 mph N/A   Scattered Clouds
3:54 PM 75.9 °F 57.0 °F 52% 29.75 in 10.0 mi South 25.3 mph 39.1 mph 0.00 in Rain Light Rain
4:54 PM 75.9 °F 57.9 °F 54% 29.71 in 10.0 mi SSE 17.3 mph 31.1 mph 0.00 in   Mostly Cloudy
5:54 PM 77.0 °F 57.9 °F 52% 29.70 in 10.0 mi SSE 16.1 mph - N/A   Partly Cloudy
6:54 PM 75.9 °F 54.0 °F 46% 29.73 in 10.0 mi South 17.3 mph - N/A   Partly Cloudy
7:54 PM 73.9 °F 52.0 °F 46% 29.74 in 10.0 mi South 10.4 mph - N/A   Mostly Cloudy
8:54 PM 66.9 °F 59.0 °F 76% 29.80 in 10.0 mi WNW 15.0 mph - N/A   Overcast
9:54 PM 62.1 °F 57.9 °F 86% 29.81 in 10.0 mi NNW 5.8 mph - N/A   Overcast
10:54 PM 60.1 °F 57.0 °F 90% 29.83 in 10.0 mi NNW 9.2 mph - 0.00 in Rain Light Rain
11:54 PM 59.0 °F 55.0 °F 87% 29.83 in 10.0 mi North 10.4 mph - 0.00 in   Mostly Cloudy